Regional Weather Roundup
Issued by NWS

Home | Current Version | Previous Version | Graphics & Text | Print | Product List | Glossary Off
Versions: 1 2 3 4 5 6 7 8 9 10 11 12 13 14 15 16 17 18 19 20 21 22 23 24 25 26 27 28 29 30 31 32 33 34 35 36 37 38 39 40 41 42 43 44 45 46 47 48 49 50

000
ASUS43 KLSX 241457
RWRMO

WEATHER SUMMARY FOR MISSOURI
NATIONAL WEATHER SERVICE SPRINGFIELD MO
900 AM CST FRI FEB 24 2017

NOTE: "FAIR" INDICATES FEW OR NO CLOUDS BELOW 12,000 FEET WITH NO
       SIGNIFICANT WEATHER AND/OR OBSTRUCTIONS TO VISIBILITY.
       CURRENT SKY AND/OR WEATHER CONDITIONS ARE NOT AVAILABLE FOR
       CHILLICOTHE AND FARMINGTON.

MOZ001>031-035>038-043-044-053-054-241600-
...NORTHERN AND WESTERN MISSOURI...

CITY           SKY/WX    TMP DP  RH WIND       PRES   REMARKS
KANSAS CTY INT DRIZZLE   37  35  92 W13       29.66R FOG     WCI  29
LEE`S SUMMIT   CLOUDY    38  35  89 W13       29.66R WCI  30
ST JOSEPH      CLOUDY    37  36  96 NW16      29.66R FOG     WCI  28
CHILLICOTHE      N/A     41  38  89 NW9       29.60R

$$
MOZ066>068-077>081-088>096-101>105-241600-
...SOUTHWEST MISSOURI...

CITY           SKY/WX    TMP DP  RH WIND       PRES   REMARKS
SPRINGFIELD    CLOUDY    43  38  82 NW15G24   29.66S
JOPLIN         CLOUDY    40  35  83 NW14G23   29.74R
BRANSON        CLOUDY    46  41  81 NW12G18   29.67R

$$
MOZ032>034-039>042-045>050-055>058-069>072-241600-
...CENTRAL MISSOURI...

CITY           SKY/WX    TMP DP  RH WIND       PRES   REMARKS
COLUMBIA       NOT AVBL
JEFFERSON CITY CLOUDY    47  40  76 W16G28    29.60R
SEDALIA        PTSUNNY   44  38  79 W15G23    29.63R
WARRENSBURG    CLOUDY    39  34  81 W12G22    29.65R

$$
MOZ051-052-059>065-241600-
...EAST CENTRAL MISSOURI...

CITY           SKY/WX    TMP DP  RH WIND       PRES   REMARKS
ST LOUIS INTL  CLOUDY    65  54  67 S10G18    29.49R

$$
MOZ072>076-082>087-097>100-106>115-241600-
...SOUTH CENTRAL AND SOUTHEAST MISSOURI...

CITY           SKY/WX    TMP DP  RH WIND       PRES   REMARKS
CAPE GIRARDEAU PTSUNNY   64  54  69 S22G29    29.58F
POPLAR BLUFF   MOSUNNY   64  54  69 SW15G26   29.59R
WEST PLAINS    PTSUNNY   62  53  72 SW12      29.59R

$$



USA.gov is the U.S. government's official web portal to all federal, state and local government web resources and services.